Time,TemperatureF,DewpointF,PressureIn,WindDirection,WindDirectionDegrees,WindSpeedMPH,WindSpeedGustMPH,Humidity,HourlyPrecipIn,Conditions,Clouds,dailyrainin,SolarRadiationWatts/m^2,SoftwareType,DateUTC
2013-12-29 00:02:00,37.0,36.0,-100.00,NW,305,4.0,6.0,98,0.45,,,1.17,0.000000,,2013-12-29 05:02:00,
2013-12-29 00:43:00,37.0,37.0,-100.00,WNW,282,3.0,6.0,99,0.16,,,1.33,0.000000,,2013-12-29 05:43:00,
2013-12-29 00:53:00,37.0,37.0,-100.00,WNW,282,3.0,6.0,99,0.16,,,1.33,0.000000,,2013-12-29 05:53:00,
2013-12-29 01:02:00,37.0,37.0,-100.00,WNW,282,3.0,6.0,99,0.16,,,1.33,0.000000,,2013-12-29 06:02:00,
2013-12-29 01:43:00,40.0,40.0,-100.00,SE,133,7.0,14.0,99,0.13,,,1.46,0.000000,,2013-12-29 06:43:00,
2013-12-29 01:52:00,40.0,40.0,-100.00,SE,133,7.0,14.0,99,0.13,,,1.46,0.000000,,2013-12-29 06:52:00,
2013-12-29 02:02:00,40.0,40.0,-100.00,SE,133,7.0,14.0,99,0.13,,,1.46,0.000000,,2013-12-29 07:02:00,
2013-12-29 02:42:00,40.0,40.0,-100.00,West,260,3.0,10.0,99,0.09,,,1.55,0.000000,,2013-12-29 07:42:00,
2013-12-29 02:53:00,40.0,40.0,-100.00,West,260,3.0,10.0,99,0.09,,,1.55,0.000000,,2013-12-29 07:53:00,
2013-12-29 03:02:00,40.0,40.0,-100.00,West,260,3.0,10.0,99,0.09,,,1.55,0.000000,,2013-12-29 08:02:00,
2013-12-29 03:42:00,36.0,36.0,-100.00,WNW,291,5.0,9.0,99,0.10,,,1.65,0.000000,,2013-12-29 08:42:00,
2013-12-29 03:52:00,36.0,36.0,-100.00,WNW,291,5.0,9.0,99,0.10,,,1.65,0.000000,,2013-12-29 08:52:00,
2013-12-29 04:02:00,36.0,36.0,-100.00,WNW,291,5.0,9.0,99,0.10,,,1.65,0.000000,,2013-12-29 09:02:00,
2013-12-29 04:43:00,38.0,38.0,-100.00,West,281,4.0,6.0,99,0.05,,,1.70,0.000000,,2013-12-29 09:43:00,
2013-12-29 04:53:00,38.0,38.0,-100.00,West,281,4.0,6.0,99,0.05,,,1.70,0.000000,,2013-12-29 09:53:00,
2013-12-29 05:03:00,38.0,38.0,-100.00,West,281,4.0,6.0,99,0.05,,,1.70,0.000000,,2013-12-29 10:03:00,
2013-12-29 05:43:00,38.0,38.0,-100.00,WSW,237,1.0,5.0,99,0.01,,,1.71,0.000000,,2013-12-29 10:43:00,
2013-12-29 05:53:00,38.0,38.0,-100.00,WSW,237,1.0,5.0,99,0.01,,,1.71,0.000000,,2013-12-29 10:53:00,
2013-12-29 06:02:00,38.0,38.0,-100.00,WSW,237,1.0,5.0,99,0.01,,,1.71,0.000000,,2013-12-29 11:02:00,
2013-12-29 06:43:00,39.0,39.0,-100.00,SSW,194,3.0,6.0,99,0.01,,,1.72,0.000000,,2013-12-29 11:43:00,
2013-12-29 06:53:00,39.0,39.0,-100.00,SSW,194,3.0,6.0,99,0.01,,,1.72,0.000000,,2013-12-29 11:53:00,
2013-12-29 07:02:00,39.0,39.0,-100.00,SSW,194,3.0,6.0,99,0.01,,,1.72,0.000000,,2013-12-29 12:02:00,
2013-12-29 07:42:00,40.0,40.0,-100.00,SW,224,4.0,7.0,99,0.01,,,1.73,0.000000,,2013-12-29 12:42:00,
2013-12-29 07:52:00,40.0,40.0,-100.00,SW,224,4.0,7.0,99,0.01,,,1.73,0.000000,,2013-12-29 12:52:00,
2013-12-29 08:02:00,40.0,40.0,-100.00,SW,224,4.0,7.0,99,0.01,,,1.73,0.000000,,2013-12-29 13:02:00,
2013-12-29 08:42:00,39.0,39.0,-100.00,West,270,3.0,7.0,99,0.04,,,1.77,0.000000,,2013-12-29 13:42:00,
2013-12-29 08:53:00,39.0,39.0,-100.00,West,270,3.0,7.0,99,0.04,,,1.77,0.000000,,2013-12-29 13:53:00,
2013-12-29 09:02:00,39.0,39.0,-100.00,West,270,3.0,7.0,99,0.04,,,1.77,0.000000,,2013-12-29 14:02:00,
2013-12-29 09:42:00,42.0,42.0,-100.00,West,278,1.0,5.0,100,0.03,,,1.80,13.000000,,2013-12-29 14:42:00,
2013-12-29 09:52:00,42.0,42.0,-100.00,West,278,1.0,5.0,100,0.03,,,1.80,13.000000,,2013-12-29 14:52:00,
2013-12-29 10:02:00,42.0,42.0,-100.00,West,278,1.0,5.0,100,0.03,,,1.80,13.000000,,2013-12-29 15:02:00,
2013-12-29 10:44:00,42.0,42.0,-100.00,WNW,290,3.0,5.0,99,0.01,,,1.81,70.000000,,2013-12-29 15:44:00,
2013-12-29 10:53:00,42.0,42.0,-100.00,WNW,290,3.0,5.0,99,0.01,,,1.81,70.000000,,2013-12-29 15:53:00,
2013-12-29 11:03:00,42.0,42.0,-100.00,WNW,290,3.0,5.0,99,0.01,,,1.81,70.000000,,2013-12-29 16:03:00,
2013-12-29 11:43:00,44.0,44.0,-100.00,WNW,288,4.0,7.0,99,0.00,,,1.81,172.000000,,2013-12-29 16:43:00,
2013-12-29 11:53:00,44.0,44.0,-100.00,WNW,288,4.0,7.0,99,0.00,,,1.81,172.000000,,2013-12-29 16:53:00,
2013-12-29 12:02:00,44.0,44.0,-100.00,WNW,288,4.0,7.0,99,0.00,,,1.81,172.000000,,2013-12-29 17:02:00,
2013-12-29 12:42:00,44.0,42.0,-100.00,WNW,291,5.0,9.0,93,0.00,,,1.80,185.000000,,2013-12-29 17:42:00,
2013-12-29 12:52:00,44.0,42.0,-100.00,WNW,291,5.0,9.0,93,0.00,,,1.80,185.000000,,2013-12-29 17:52:00,
2013-12-29 13:02:00,44.0,42.0,-100.00,WNW,291,5.0,9.0,93,0.00,,,1.80,185.000000,,2013-12-29 18:02:00,
2013-12-29 13:42:00,46.0,43.0,-100.00,WNW,291,4.0,10.0,89,0.00,,,1.76,168.000000,,2013-12-29 18:42:00,
2013-12-29 13:53:00,46.0,43.0,-100.00,WNW,291,4.0,10.0,89,0.00,,,1.76,168.000000,,2013-12-29 18:53:00,
2013-12-29 14:01:00,46.0,43.0,-100.00,WNW,291,4.0,10.0,89,0.00,,,1.76,168.000000,,2013-12-29 19:01:00,
2013-12-29 14:43:00,47.0,43.0,-100.00,WNW,290,4.0,9.0,85,0.00,,,1.73,181.000000,,2013-12-29 19:43:00,
2013-12-29 14:52:00,47.0,43.0,-100.00,WNW,290,4.0,9.0,85,0.00,,,1.73,181.000000,,2013-12-29 19:52:00,
2013-12-29 15:02:00,47.0,43.0,-100.00,WNW,290,4.0,9.0,85,0.00,,,1.73,181.000000,,2013-12-29 20:02:00,
2013-12-29 15:42:00,48.0,43.0,-100.00,WNW,301,5.0,11.0,83,0.00,,,1.70,172.000000,,2013-12-29 20:42:00,
2013-12-29 15:53:00,48.0,43.0,-100.00,WNW,301,5.0,11.0,83,0.00,,,1.70,172.000000,,2013-12-29 20:53:00,
2013-12-29 16:02:00,48.0,43.0,-100.00,WNW,301,5.0,11.0,83,0.00,,,1.70,172.000000,,2013-12-29 21:02:00,
2013-12-29 16:43:00,47.0,42.0,-100.00,NW,304,3.0,7.0,84,0.00,,,1.69,121.000000,,2013-12-29 21:43:00,
2013-12-29 16:54:00,47.0,42.0,-100.00,NW,304,3.0,7.0,84,0.00,,,1.69,121.000000,,2013-12-29 21:54:00,
2013-12-29 17:03:00,47.0,42.0,-100.00,NW,304,3.0,7.0,84,0.00,,,1.69,121.000000,,2013-12-29 22:03:00,
2013-12-29 17:42:00,46.0,42.0,-100.00,WNW,293,4.0,7.0,85,0.00,,,1.68,74.000000,,2013-12-29 22:42:00,
2013-12-29 17:52:00,46.0,42.0,-100.00,WNW,293,4.0,7.0,85,0.00,,,1.68,74.000000,,2013-12-29 22:52:00,
2013-12-29 18:02:00,46.0,42.0,-100.00,WNW,293,4.0,7.0,85,0.00,,,1.68,74.000000,,2013-12-29 23:02:00,
2013-12-29 18:42:00,43.0,39.0,-100.00,North,-999,0.0,8.0,87,0.00,,,1.62,21.000000,,2013-12-29 23:42:00,
2013-12-29 18:53:00,43.0,39.0,-100.00,North,-999,0.0,8.0,87,0.00,,,1.62,21.000000,,2013-12-29 23:53:00,
2013-12-29 19:02:00,43.0,39.0,-100.00,North,-999,0.0,8.0,87,0.00,,,1.62,21.000000,,2013-12-30 00:02:00,
2013-12-29 19:42:00,42.0,40.0,-100.00,North,-999,0.0,0.0,91,0.00,,,1.50,0.000000,,2013-12-30 00:42:00,
2013-12-29 19:53:00,42.0,40.0,-100.00,North,-999,0.0,0.0,91,0.00,,,1.50,0.000000,,2013-12-30 00:53:00,
2013-12-29 20:02:00,42.0,40.0,-100.00,North,-999,0.0,0.0,91,0.00,,,1.50,0.000000,,2013-12-30 01:02:00,
2013-12-29 20:43:00,42.0,40.0,-100.00,West,268,3.0,5.0,92,0.00,,,1.39,0.000000,,2013-12-30 01:43:00,
2013-12-29 20:52:00,42.0,40.0,-100.00,West,268,3.0,5.0,92,0.00,,,1.39,0.000000,,2013-12-30 01:52:00,
2013-12-29 21:02:00,42.0,40.0,-100.00,West,268,3.0,5.0,92,0.00,,,1.39,0.000000,,2013-12-30 02:02:00,
2013-12-29 21:42:00,41.0,38.0,-100.00,West,270,3.0,4.0,88,0.00,,,1.26,0.000000,,2013-12-30 02:42:00,
2013-12-29 21:52:00,41.0,38.0,-100.00,West,270,3.0,4.0,88,0.00,,,1.26,0.000000,,2013-12-30 02:52:00,
2013-12-29 22:02:00,41.0,38.0,-100.00,West,270,3.0,4.0,88,0.00,,,1.26,0.000000,,2013-12-30 03:02:00,
2013-12-29 22:43:00,43.0,39.0,-100.00,SSW,200,4.0,6.0,87,0.00,,,1.09,0.000000,,2013-12-30 03:43:00,
2013-12-29 23:43:00,41.0,39.0,-100.00,WNW,296,1.0,5.0,94,-99.99,,,0.64,0.000000,,2013-12-30 04:43:00,
2013-12-29 23:53:00,41.0,39.0,-100.00,WNW,296,1.0,5.0,94,-99.99,,,0.64,0.000000,,2013-12-30 04:53:00,